{"data":{"norad_id":53231,"intl_designator":"2022-084AU","name":"STARLINK-4370","alt_names":[],"object_type":"PAYLOAD","status":"ACTIVE","operator":null,"country":"US","launch_date":"2022-07-22","launch_site_code":"AFWTR","launch_vehicle":null,"mission":null,"orbit_class":"UNKNOWN","rcs_meters":null,"size_class":null,"mass_kg":null,"dimensions":null,"purposes":["comms"],"wikipedia_slug":null,"has_3d_model":false,"image_url":null,"decayed_at":null,"tle_current":{"epoch":"2026-05-25T02:29:00.168288Z","epoch_age_seconds":62741,"freshness":"FRESH","line1":"1 53231U 22084AU  26145.10347417 -.00001558  00000+0 -10392-3 0  9993","line2":"2 53231  97.4492 206.1654 0001206 113.3922 246.7432 15.05663693210886","mean_motion":15.05663693,"eccentricity":0.0001206,"inclination_deg":97.4492,"raan_deg":206.1654,"arg_perigee_deg":113.3922,"mean_anomaly_deg":246.7432,"bstar":-0.00010392,"rev_number":21088,"period_min":95.638887136266,"perigee_km":548.63368313549,"apogee_km":550.30462173945,"semimajor_km":6927.6061524375,"source":"CELESTRAK","updated_at":"2026-05-25T13:38:17.358489Z"}}}